Hourly Weather Yerevan

Today, 4 July, Saturday

Time Temperature Precipitation Wind Pressure Humidity
00:00 +24°C° 0 mm 2 mps 691 mmHg 53%
01:00 +23°C° 0 mm 2 mps 691 mmHg 56%
02:00 +23°C° 0 mm 2 mps 691 mmHg 59%
03:00 +22°C° 0 mm 1 mps 690 mmHg 63%
04:00 +23°C° 0 mm 1 mps 690 mmHg 62%
05:00 +23°C° 0 mm 1 mps 691 mmHg 61%
06:00 +24°C° 0 mm 1 mps 691 mmHg 60%
07:00 +26°C° 0 mm 1 mps 691 mmHg 54%
08:00 +27°C° 0 mm 1 mps 691 mmHg 48%
09:00 +29°C° 0 mm 1 mps 691 mmHg 43%
10:00 +30°C° 0.1 mm 1 mps 691 mmHg 40%
11:00 +32°C° 0.1 mm 1 mps 691 mmHg 36%
12:00 +33°C° 0.1 mm 1 mps 691 mmHg 33%
13:00 +34°C° 0.1 mm 1 mps 691 mmHg 30%
14:00 +35°C° 0.1 mm 1 mps 691 mmHg 28%
15:00 +35°C° 0.1 mm 1 mps 690 mmHg 26%
16:00 +35°C° 0.1 mm 2 mps 690 mmHg 29%
17:00 +32°C° 0.1 mm 2 mps 690 mmHg 32%
18:00 +31°C° 0.1 mm 2 mps 690 mmHg 36%
19:00 +29°C° 0.2 mm 2 mps 690 mmHg 42%
20:00 +27°C° 0.2 mm 3 mps 690 mmHg 49%
21:00 +25°C° 0.2 mm 3 mps 690 mmHg 55%
22:00 +24°C° 0.1 mm 3 mps 690 mmHg 56%
23:00 +24°C° 0.1 mm 2 mps 690 mmHg 57%

Tomorrow, 5 July, Sunday

Time Temperature Precipitation Wind Pressure Humidity
00:00 +23°C° 0.1 mm 2 mps 689 mmHg 58%
01:00 +23°C° 0 mm 2 mps 689 mmHg 60%
02:00 +21°C° 0 mm 2 mps 689 mmHg 62%
03:00 +22°C° 0 mm 1 mps 689 mmHg 63%
04:00 +22°C° 0 mm 1 mps 689 mmHg 62%
05:00 +23°C° 0 mm 1 mps 689 mmHg 61%
06:00 +23°C° 0 mm 1 mps 689 mmHg 60%
07:00 +25°C° 0 mm 1 mps 689 mmHg 55%
08:00 +27°C° 0 mm 1 mps 689 mmHg 49%
09:00 +28°C° 0 mm 1 mps 689 mmHg 43%
10:00 +30°C° 0.1 mm 1 mps 689 mmHg 40%
11:00 +31°C° 0.1 mm 1 mps 689 mmHg 36%
12:00 +33°C° 0.1 mm 1 mps 688 mmHg 33%
13:00 +34°C° 0.1 mm 2 mps 688 mmHg 31%
14:00 +35°C° 0.1 mm 3 mps 688 mmHg 30%
15:00 +36°C° 0.1 mm 3 mps 688 mmHg 28%
16:00 +34°C° 0.2 mm 5 mps 687 mmHg 33%
17:00 +32°C° 0.2 mm 7 mps 687 mmHg 38%
18:00 +29°C° 0.2 mm 8 mps 687 mmHg 43%
19:00 +28°C° 0.1 mm 6 mps 687 mmHg 47%
20:00 +27°C° 0.1 mm 4 mps 687 mmHg 50%
21:00 +25°C° 0.1 mm 2 mps 688 mmHg 54%
22:00 +25°C° 0 mm 2 mps 688 mmHg 56%
23:00 +24°C° 0 mm 1 mps 688 mmHg 58%

Day after tomorrow, 6 July, Monday

Time Temperature Precipitation Wind Pressure Humidity
00:00 +23°C° 0 mm 1 mps 687 mmHg 60%
01:00 +23°C° 0 mm 1 mps 687 mmHg 61%
02:00 +22°C° 0 mm 1 mps 687 mmHg 62%
03:00 +22°C° 0 mm 1 mps 687 mmHg 62%
04:00 +22°C° 0 mm 1 mps 687 mmHg 60%
05:00 +23°C° 0 mm 1 mps 687 mmHg 58%
06:00 +24°C° 0 mm 1 mps 687 mmHg 56%
07:00 +25°C° 0 mm 1 mps 688 mmHg 50%
08:00 +27°C° 0 mm 1 mps 688 mmHg 45%
09:00 +29°C° 0 mm 1 mps 688 mmHg 39%
10:00 +30°C° 0 mm 1 mps 688 mmHg 35%
11:00 +32°C° 0 mm 2 mps 688 mmHg 32%
12:00 +34°C° 0 mm 2 mps 688 mmHg 28%
13:00 +35°C° 0 mm 2 mps 688 mmHg 27%
14:00 +36°C° 0 mm 3 mps 687 mmHg 25%
15:00 +36°C° 0 mm 3 mps 687 mmHg 24%
16:00 +36°C° 0 mm 4 mps 687 mmHg 25%
17:00 +35°C° 0 mm 4 mps 687 mmHg 27%
18:00 +34°C° 0 mm 5 mps 687 mmHg 29%
19:00 +32°C° 0 mm 4 mps 687 mmHg 33%
20:00 +29°C° 0 mm 4 mps 688 mmHg 37%
21:00 +27°C° 0 mm 3 mps 688 mmHg 41%
22:00 +26°C° 0 mm 2 mps 687 mmHg 43%
23:00 +25°C° 0 mm 2 mps 687 mmHg 44%

7 July, Tuesday

Time Temperature Precipitation Wind Pressure Humidity
00:00 +24°C° 0 mm 1 mps 687 mmHg 45%
01:00 +24°C° 0 mm 1 mps 687 mmHg 47%
02:00 +23°C° 0 mm 1 mps 687 mmHg 49%
03:00 +22°C° 0 mm 1 mps 686 mmHg 51%
04:00 +23°C° 0 mm 1 mps 687 mmHg 51%
05:00 +24°C° 0 mm 1 mps 687 mmHg 50%
06:00 +25°C° 0 mm 1 mps 687 mmHg 50%
07:00 +26°C° 0 mm 1 mps 687 mmHg 44%
08:00 +28°C° 0 mm 1 mps 688 mmHg 38%
09:00 +30°C° 0 mm 1 mps 688 mmHg 32%
10:00 +32°C° 0 mm 1 mps 688 mmHg 29%
11:00 +33°C° 0 mm 1 mps 688 mmHg 26%
12:00 +36°C° 0 mm 2 mps 688 mmHg 23%
13:00 +36°C° 0 mm 2 mps 688 mmHg 21%
14:00 +37°C° 0 mm 2 mps 687 mmHg 20%
15:00 +38°C° 0 mm 2 mps 687 mmHg 18%
16:00 +38°C° 0 mm 2 mps 687 mmHg 19%
17:00 +37°C° 0 mm 2 mps 687 mmHg 20%
18:00 +37°C° 0 mm 2 mps 687 mmHg 21%
19:00 +35°C° 0 mm 2 mps 687 mmHg 27%
20:00 +31°C° 0 mm 2 mps 687 mmHg 33%
21:00 +28°C° 0 mm 3 mps 687 mmHg 40%
22:00 +28°C° 0 mm 2 mps 687 mmHg 41%
23:00 +27°C° 0 mm 2 mps 687 mmHg 42%

8 July, Wednesday

Time Temperature Precipitation Wind Pressure Humidity
00:00 +26°C° 0 mm 1 mps 686 mmHg 43%
01:00 +26°C° 0 mm 1 mps 686 mmHg 45%
02:00 +25°C° 0 mm 1 mps 686 mmHg 46%
03:00 +25°C° 0 mm 1 mps 686 mmHg 48%
04:00 +25°C° 0 mm 1 mps 686 mmHg 49%
05:00 +26°C° 0 mm 1 mps 687 mmHg 49%
06:00 +27°C° 0 mm 1 mps 687 mmHg 49%
07:00 +29°C° 0 mm 1 mps 687 mmHg 43%
08:00 +31°C° 0 mm 1 mps 687 mmHg 37%
09:00 +32°C° 0 mm 1 mps 687 mmHg 31%
10:00 +34°C° 0 mm 1 mps 687 mmHg 28%
11:00 +36°C° 0 mm 1 mps 687 mmHg 25%
12:00 +37°C° 0 mm 1 mps 687 mmHg 22%
13:00 +37°C° 0.1 mm 2 mps 687 mmHg 23%
14:00 +37°C° 0.1 mm 2 mps 687 mmHg 23%
15:00 +36°C° 0.1 mm 3 mps 686 mmHg 24%
16:00 +36°C° 0 mm 3 mps 687 mmHg 24%
17:00 +37°C° 0 mm 2 mps 687 mmHg 24%
18:00 +36°C° 0 mm 1 mps 687 mmHg 24%
19:00 +34°C° 0 mm 2 mps 687 mmHg 30%
20:00 +31°C° 0 mm 3 mps 687 mmHg 36%
21:00 +28°C° 0 mm 4 mps 687 mmHg 43%
22:00 +27°C° 0.1 mm 3 mps 687 mmHg 46%
23:00 +26°C° 0.1 mm 2 mps 687 mmHg 49%

9 July, Thursday

Time Temperature Precipitation Wind Pressure Humidity
00:00 +25°C° 0.1 mm 2 mps 687 mmHg 52%
01:00 +25°C° 0 mm 2 mps 687 mmHg 53%
02:00 +24°C° 0 mm 2 mps 687 mmHg 54%
03:00 +24°C° 0 mm 2 mps 687 mmHg 55%
04:00 +24°C° 0.1 mm 2 mps 687 mmHg 54%
05:00 +25°C° 0.1 mm 2 mps 687 mmHg 54%
06:00 +25°C° 0.1 mm 2 mps 687 mmHg 53%
07:00 +27°C° 0 mm 2 mps 688 mmHg 48%
08:00 +29°C° 0 mm 3 mps 688 mmHg 42%
09:00 +31°C° 0 mm 3 mps 688 mmHg 37%
10:00 +33°C° 0 mm 3 mps 688 mmHg 34%
11:00 +35°C° 0 mm 3 mps 688 mmHg 30%
12:00 +36°C° 0 mm 3 mps 688 mmHg 27%
13:00 +37°C° 0 mm 2 mps 688 mmHg 25%
14:00 +38°C° 0 mm 2 mps 688 mmHg 24%
15:00 +37°C° 0 mm 1 mps 688 mmHg 22%
16:00 +34°C° 2 mm 2 mps 688 mmHg 36%
17:00 +29°C° 2 mm 3 mps 687 mmHg 50%
18:00 +25°C° 2 mm 4 mps 687 mmHg 64%
19:00 +25°C° 0.2 mm 3 mps 688 mmHg 65%
20:00 +25°C° 0.2 mm 2 mps 688 mmHg 66%
21:00 +24°C° 0.2 mm 1 mps 689 mmHg 66%
22:00 +24°C° 0 mm 1 mps 689 mmHg 67%
23:00 +24°C° 0 mm 1 mps 689 mmHg 67%
Show more